TimeCDT,TemperatureF,Dew PointF,Humidity,Sea Level PressureIn,VisibilityMPH,Wind Direction,Wind SpeedMPH,Gust SpeedMPH,PrecipitationIn,Events,Conditions,WindDirDegrees,DateUTC
12:58 AM,59,54,79,29.93,3,Calm,Calm,,,,Partly Cloudy,,2013-08-30 05:58:00
3:50 AM,57,54,85,29.96,3,Calm,Calm,,,,Scattered Clouds,,2013-08-30 08:50:00
5:57 AM,50.0,48.2,94,30.36,6.0,NW,5.8,-,N/A,,Scattered Clouds,310,2013-08-30 10:57:00
6:45 AM,50.0,48.2,94,30.36,7.0,WNW,4.6,-,N/A,,Scattered Clouds,300,2013-08-30 11:45:00
6:58 AM,55,52,85,29.93,3,Calm,Calm,,,,Mostly Cloudy,,2013-08-30 11:58:00
7:41 AM,50.0,46.4,87,30.36,8.0,NNW,4.6,-,N/A,,Scattered Clouds,330,2013-08-30 12:41:00
8:41 AM,55.4,50.0,82,30.37,8.0,North,4.6,-,N/A,,Mostly Cloudy,350,2013-08-30 13:41:00
9:44 AM,60.8,50.0,68,30.39,9.0,NW,5.8,-,N/A,,Scattered Clouds,320,2013-08-30 14:44:00
10:41 AM,64.4,48.2,56,30.40,10.0,NNW,4.6,-,N/A,,Mostly Cloudy,340,2013-08-30 15:41:00
11:40 AM,66.2,48.2,52,30.39,10.0,ENE,3.5,-,N/A,,Mostly Cloudy,70,2013-08-30 16:40:00
12:47 PM,69.8,50.0,49,30.37,10.0,SE,3.5,-,N/A,,Mostly Cloudy,130,2013-08-30 17:47:00
12:50 PM,70,49,36,29.95,6,SE,2.2,,,,Haze,140,2013-08-30 17:50:00
1:42 PM,71.6,51.8,50,30.36,10.0,SSW,3.5,-,N/A,,Mostly Cloudy,200,2013-08-30 18:42:00
2:43 PM,71.6,50.0,46,30.34,11.0,SSE,10.4,-,N/A,,Mostly Cloudy,150,2013-08-30 19:43:00
3:40 PM,75,45,23,29.81,12,SSE,2.2,,,,Overcast,160,2013-08-30 20:40:00
3:42 PM,71.6,51.8,50,30.32,11.0,SSW,9.2,-,N/A,,Mostly Cloudy,200,2013-08-30 20:42:00
4:43 PM,73.4,51.8,47,30.29,11.0,SE,5.8,-,N/A,,Mostly Cloudy,140,2013-08-30 21:43:00
5:42 PM,71.6,51.8,50,30.29,11.0,South,5.8,-,N/A,,Mostly Cloudy,170,2013-08-30 22:42:00
6:40 PM,68,51,45,29.74,12,SSE,2.2,,,,Mostly Cloudy,160,2013-08-30 23:40:00
6:41 PM,68.0,53.6,60,30.29,11.0,South,13.8,-,N/A,,Mostly Cloudy,170,2013-08-30 23:41:00
7:53 PM,62.6,53.6,72,30.31,10.0,SSW,10.4,-,N/A,,Mostly Cloudy,200,2013-08-31 00:53:00
8:42 PM,60.8,55.4,82,30.32,9.0,SSW,8.1,-,N/A,,Mostly Cloudy,200,2013-08-31 01:42:00
9:43 PM,59.0,55.4,88,30.34,9.0,South,4.6,-,N/A,,Mostly Cloudy,190,2013-08-31 02:43:00
9:58 PM,65,52,52,29.76,3,Calm,Calm,,,,Partly Cloudy,,2013-08-31 02:58:00
10:42 PM,59.0,57.2,94,30.36,7.0,North,3.5,-,N/A,,Mostly Cloudy,10,2013-08-31 03:42:00